Погода в Милтон-Кинсе

Великобритания     52°02′21″N   0°44′44″E
темп.,
°C
ветер,
м/с
пор.,
м/с
влажн.,
%
обл.,
%
осадки,
мм/ч
давл.,
гПа
погр.,
м
15 апреля, чт
чт1501:00−1св22925 0.0 103525
04:00−2ссв22945 0.0 103519
07:00−1ссв259399 0.0 1035126
10:00+6св45655 0.0 10351012
13:00+8св5559100 0.1 10331716
16:00+9св565796 0.1 10321619
19:00+6св487615 0.3 1032430
22:00+1св36925 0.0 103388
16 апреля, пт
пт1601:000св22975 0.0 103333
04:00−1ссв229832 0.0 103227
07:000ссв249947 0.0 1033100
10:00+6св34685 0.0 1032701
13:00+9св33495 0.0 10311493
16:00+10св33475 0.0 10301761
19:00+7ссв22675 0.0 103029
22:00+2всв36825 0.0 103183
17 апреля, сб
сб1701:000вюв11860 0.0 103110
04:00−1св11860 0.0 103110
07:000св22804 0.0 103135
10:00+6всв22530 0.0 1030544
13:00+10всв11475 0.0 10281208
16:00+11сз114732 0.0 10271434
19:00+8зсз116355 0.0 102611
22:00+4ю1165100 0.0 102610
18 апреля, вс
вс1801:00+3ююв2276100 0.0 102511
04:00+4ююз2273100 0.0 102417
07:00+4юз2378100 0.0 102483
10:00+8юз3473100 0.0 1023534
13:00+10зюз4460100 0.0 10221197
16:00+7з2574100 0.0 1021372
19:00+7ююз1169100 0.0 102117
22:00+6ююз2471100 0.0 1021124
19 апреля, пн
пн1901:00+6ю2576100 0.0 1020144
04:00+6ю2581100 0.0 1019183
07:00+6ю2581100 0.0 1018196
10:00+6ююв2584100 0.0 1018280
13:00+8ю3577100 0.0 1017532
16:00+8ююз3578100 0.0 1015563
19:00+8ююз2283100 0.0 101539
22:00+7ю1179100 0.0 101512